sat.trackr.live / text

‹ back to catalog

STARLINK-34079

NORAD 64038 · 2025-102S

PAYLOAD ACTIVE UNKNOWN

§ Identity

Operator
Country
US
Launch date
2025-05-16
Launch site
AFWTR
Launch vehicle
Mass (kg)
RCS (m²)

Purposes: comms

External: N2YO · Heavens-Above · Gunter

§ Orbital elements

Epoch: 2026-05-25T02:44:50.538048Z

Period
96.11 min
Inclination
70.0002°
Eccentricity
0.0003244
Mean motion
14.98340724 rev/d
Perigee alt
569.8 km
Apogee alt
574.3 km
Semi-major
6,950.2 km
B*
4.0339e-4
RAAN
281.6027°
Arg perigee
267.0569°
Mean anomaly
93.0219°
Rev number
5,750

§ Raw data

STARLINK-340791 64038U 25102S   26145.11447382  .00004725  00000+0  40339-3 0  99982 64038  70.0002 281.6027 0003244 267.0569  93.0219 14.98340724 57509

JSON: /api/v1/satellites/64038 · /tle

For live sub-satellite position, see the globe view (requires WebGL).

§ Visibility from observer

Set your observer location to see the next 7 days of passes ≥ 10°. The values pass through the URL so the page stays shareable.

No JS? Fill the form by hand. The geolocation button needs JavaScript.